[[{"header":{"parameterUnit":"m.s-1","parameterCategory":2,"la1":30.2991,"la2":30.254,"lo1":-89.0895,"lo2":-89.0444,"dy":0.0017,"dx":0.0017,"nx":28,"ny":28,"refTime":"2025-01-18T03:00:00:Z","depth":"0","parameterNumber":2,"parameterNumberName":"U-component_of_CURRENTS"},"data":[0,0,0,0,0,0,0,0,0,0,0,0,0,0,0,0,0,0,0,0,0,0,0,0,0,0,0,0,0,0,0,0,0,0,0,0,0,0,0,0,0,0,0,0,0,0,0,0,0,0,0,0,0,0,0,0,0,0,0.2831,0.2831,0,0.2823,0.2823,0.2822,0.2792,0.2792,0.2792,0.2791,0.2773,0.2773,0.2773,0,0,0,0,0,0,0,0,0,0,0,0,0,0.2813,0.2814,0.2831,0.2831,0.2831,0.2823,0.2823,0.2822,0.2793,0.2792,0.2791,0.2791,0.2773,0.2773,0.2773,0,0,0,0,0,0,0,0,0,0,0,0,0,0.2812,0.2814,0.2831,0.2817,0.2816,0.2823,0.2823,0.2822,0.2793,0.2792,0.2791,0.2791,0.2773,0.2773,0.2773,0.2785,0,0,0.2773,0.2773,0,0,0,0,0,0,0,0,0.2812,0.2812,0.2819,0.2818,0.2817,0.2811,0.281,0.281,0.2793,0.2799,0.2791,0.279,0.2787,0.2786,0.2782,0.2784,0.2783,0.2773,0.2773,0.2772,0.2772,0,0,0,0,0,0,0,0.2812,0.2813,0.2825,0.2819,0.2818,0.281,0.2809,0.281,0.2794,0.2798,0.2797,0.2801,0.2786,0.2782,0.2781,0.2783,0.2773,0.2773,0.2772,0.2772,0.2839,0.2841,0,0,0,0,0,0,0.282,0.2813,0.2825,0.2825,0.2816,0.2811,0.281,0.2811,0.2794,0.2792,0.2801,0.2799,0.2783,0.2781,0.278,0.2833,0.2772,0.2772,0.2772,0.2837,0.2839,0.2841,0,0,0,0,0,0,0.282,0.2821,0.2825,0.2821,0.2821,0.2812,0.2814,0.2811,0.2812,0.2797,0.2794,0.2805,0.2782,0.2781,0.279,0.283,0.2772,0.2772,0.2835,0.2838,0.284,0.2912,0,0,0,0,0,0,0.2819,0.2821,0.2826,0.2822,0.2822,0.2839,0.2815,0.2812,0.2816,0.2814,0.28,0.2797,0.2781,0.279,0.279,0.2829,0.2772,0.2833,0.2836,0.2839,0.2907,0.2917,0.2925,0,0,0,0,0,0.2819,0.2819,0.2826,0.2828,0.2828,0.284,0.284,0.2829,0.2817,0.2825,0.2815,0.2798,0.2813,0.2791,0.279,0.283,0.2831,0.2835,0.2839,0.2903,0.2915,0.2925,0,0,0,0,0,0,0.2797,0.2817,0.2823,0.2826,0.2842,0.2836,0.2839,0.2837,0.2834,0.2831,0.2811,0.2809,0.2837,0.2824,0.2801,0.2862,0.2824,0.2828,0.2873,0.2883,0.2892,0.2896,0.2772,0,0,0,0,0,0.2802,0.2815,0.2832,0.2834,0.2846,0.2847,0.2851,0.2851,0.2849,0.2846,0.2841,0.2841,0.2854,0.2858,0.2863,0.2889,0.2942,0.2919,0.2928,0.2935,0.294,0.3068,0.309,0.2855,0.2855,0.2855,0,0,0.2792,0.2806,0.2811,0.2833,0.284,0.2861,0.2847,0.2859,0.2875,0.2846,0.2863,0.287,0.2868,0.29,0.2913,0.2893,0.3035,0.294,0.2947,0.2947,0.3075,0.3098,0.3118,0.2858,0.2857,0.2857,0,0,0.2788,0.2796,0.2816,0.2835,0.2863,0.2869,0.2879,0.2893,0.2899,0.2922,0.2913,0.2945,0.2949,0.2969,0.2975,0.3037,0.3078,0.3043,0.309,0.3216,0.3236,0.3255,0.3379,0.3408,0.3047,0.3048,0.3048,0,0.2778,0.281,0.2822,0.2848,0.2872,0.2877,0.291,0.2914,0.2929,0.2965,0.2936,0.3006,0.2987,0.306,0.3064,0.3059,0.3138,0.3048,0.323,0.3249,0.3267,0.3389,0.3421,0.3052,0.3051,0.3051,0.305,0,0.2806,0.2828,0.2839,0.2883,0.2904,0.2932,0.2954,0.2983,0.2996,0.3021,0.31,0.3094,0.3151,0.3146,0.3107,0.3231,0.3251,0.3229,0.3205,0.3296,0.3418,0.345,0.3057,0.3056,0.3055,0.3054,0,0,0.2816,0.2853,0.286,0.2898,0.2934,0.2962,0.2999,0.3066,0.313,0.3147,0.3251,0.3247,0.3278,0.3287,0.328,0.3347,0.3524,0.3333,0.3338,0.346,0.3826,0.376,0.3788,0.3548,0.3553,0.3557,0.387,0,0.285,0.2901,0.291,0.2972,0.302,0.3043,0.3087,0.3145,0.3195,0.3293,0.3327,0.3403,0.3325,0.3371,0.3436,0.3509,0.3606,0.3441,0.3714,0.3722,0.3657,0.3822,0.3689,0.3949,0.3901,0.3906,0.391,0,0.292,0.2942,0.2996,0.3069,0.3091,0.3118,0.3237,0.3274,0.3392,0.3441,0.3536,0.3572,0.3681,0.3594,0.3803,0.3712,0.3774,0.3813,0.3827,0.3757,0.3715,0.3845,0.4008,0.3862,0.3958,0.3954,0.3951,0,0.2993,0.3032,0.3077,0.3095,0.3151,0.3194,0.3234,0.3337,0.3415,0.3552,0.3655,0.3777,0.3879,0.3974,0.4028,0.3955,0.4261,0.4188,0.4199,0.4196,0.4128,0.4109,0.4179,0.4355,0.4354,0.4353,0.4352,0,0.308,0.3128,0.311,0.3143,0.3231,0.3248,0.3369,0.3431,0.3555,0.3666,0.3743,0.3864,0.3979,0.4139,0.4157,0.4298,0.4396,0.4254,0.4288,0.4149,0.4129,0.4028,0.3939,0.4365,0.4362,0.436,0.4358,0,0.319,0.3172,0.3233,0.3255,0.3276,0.3342,0.3443,0.3516,0.3634,0.3793,0.3847,0.4024,0.42,0.4314,0.4498,0.4488,0.4477,0.461,0.4429,0.4433,0.4241,0.4161,0.4162,0.4045,0.4703,0.4703,0.4703,0,0.3268,0.3297,0.3307,0.3328,0.3339,0.342,0.3465,0.3559,0.3623,0.3858,0.3927,0.4164,0.4268,0.4554,0.4591,0.4713,0.4517,0.4648,0.4447,0.4254,0.4194,0.4003,0.3888,0.4419,0.4417,0.4416,0.4415,0,0.3409,0.3381,0.3398,0.3417,0.3447,0.3486,0.3547,0.3614,0.3708,0.3841,0.398,0.4091,0.4349,0.4406,0.4582,0.461,0.4409,0.4615,0.4489,0.4044,0.3774,0.3668,0.4187,0.44,0.4402,0.4403,0.4403,0.4404,0.3498,0.3518,0.3491,0.3514,0.3526,0.3504,0.3523,0.3561,0.3652,0.3766,0.3921,0.4016,0.4208,0.4409,0.4422,0.4351,0.4297,0.4227,0.4181,0.403,0.3787,0.4258,0.4435,0.4437,0.4438,0.4439,0.444,0,0.3584,0.3568,0.3588,0.3564,0.3533,0.3532,0.3532,0.3497,0.3524,0.3629,0.3729,0.3847,0.3943,0.4038,0.4085,0.3954,0.3773,0.384,0.3545,0.3478,0.3999,0.3848,0.3814,0.3814,0.3814,0.3814,0.3815,0.3815,0.3623,0.3627,0.36,0.3557,0.3523,0.3434,0.3401,0.3349,0.3366,0.3338,0.3349,0.3445,0.3626,0.3783,0.3682,0.36,0.3299,0.3184,0.3141,0.3495,0.3526,0.3554,0.3392,0.3263,0.3262,0.2495,0.2489,0.2485]},{"header":{"parameterUnit":"m.s-1","parameterCategory":2,"la1":30.2991,"la2":30.254,"lo1":-89.0895,"lo2":-89.0444,"dy":0.0017,"dx":0.0017,"nx":28,"ny":28,"refTime":"2025-01-18T03:00:00:Z","depth":"0","parameterNumber":3,"parameterNumberName":"V-component_of_CURRENTS"},"data":[0,0,0,0,0,0,0,0,0,0,0,0,0,0,0,0,0,0,0,0,0,0,0,0,0,0,0,0,0,0,0,0,0,0,0,0,0,0,0,0,0,0,0,0,0,0,0,0,0,0,0,0,0,0,0,0,0,0,0.016,0.016,0,0.01,0.0099,0.0098,0.0055,0.0055,0.0055,0.0054,-0.0062,-0.0065,-0.0068,0,0,0,0,0,0,0,0,0,0,0,0,0,0.0175,0.0175,0.016,0.016,0.0159,0.01,0.0099,0.0098,0.0055,0.0055,0.0055,0.0054,-0.0061,-0.0064,-0.0068,0,0,0,0,0,0,0,0,0,0,0,0,0,0.0146,0.0175,0.016,0.0132,0.0129,0.01,0.0099,0.0098,0.0055,0.0055,0.0054,0.0054,-0.006,-0.0064,-0.0068,-0.009,0,0,-0.0082,-0.0084,0,0,0,0,0,0,0,0,0.0147,0.0145,0.0136,0.0134,0.013,0.0086,0.0062,0.0033,0.0055,0.0081,0.0054,0.0054,-0.0016,-0.0024,-0.0037,-0.0095,-0.01,-0.0082,-0.0085,-0.0087,-0.0088,0,0,0,0,0,0,0,0.015,0.0147,0.0134,0.0136,0.0132,0.0101,0.0096,0.0056,0.0032,0.0079,0.0076,0.0072,-0.0019,-0.0032,-0.004,-0.0102,-0.0082,-0.0086,-0.0089,-0.009,-0.018,-0.018,0,0,0,0,0,0,0.0164,0.0149,0.0136,0.0133,0.014,0.0101,0.0096,0.0099,0.0034,0.0025,0.0073,0.007,-0.0025,-0.0035,-0.0044,-0.0053,-0.0087,-0.0091,-0.0093,-0.0181,-0.018,-0.018,0,0,0,0,0,0,0.0165,0.0164,0.0139,0.014,0.0135,0.0102,0.0105,0.0098,0.0086,0.003,0.0019,0.0068,-0.0025,-0.0038,-0.0073,-0.0058,-0.0093,-0.0097,-0.0181,-0.0181,-0.018,-0.0083,0,0,0,0,0,0,0.0166,0.0165,0.0169,0.0142,0.0136,0.0131,0.0105,0.0097,0.0085,0.0082,0.0023,0.0011,-0.0026,-0.0066,-0.0078,-0.0065,-0.01,-0.0181,-0.0181,-0.018,-0.0087,-0.008,-0.0074,0,0,0,0,0,0.0167,0.018,0.017,0.0168,0.0145,0.0132,0.0126,0.0098,0.0086,0.0085,0.0046,0.0013,-0.0072,-0.007,-0.0083,-0.0071,-0.0181,-0.0181,-0.018,-0.009,-0.0081,-0.0074,0,0,0,0,0,0,0.0188,0.0176,0.0165,0.0174,0.0157,0.0125,0.0123,0.0104,0.0073,0.0069,0.0014,0.0001,-0.0027,-0.0065,-0.0061,-0.0097,-0.0131,-0.0133,-0.0058,-0.0051,-0.0044,0.0,-0.0104,0,0,0,0,0,0.0196,0.0203,0.0183,0.0189,0.0185,0.0154,0.0144,0.0128,0.0099,0.0085,0.0046,0.0002,-0.0035,-0.0054,-0.0096,-0.0115,-0.0114,-0.0117,-0.011,-0.0104,-0.0078,-0.0059,-0.0047,-0.0178,-0.0178,-0.0178,0,0,0.0206,0.02,0.0203,0.0193,0.0178,0.0186,0.0147,0.0141,0.0149,0.0076,0.0071,0.002,-0.0038,-0.0057,-0.0072,-0.0085,-0.0068,-0.0104,-0.0098,-0.0075,-0.0057,-0.0044,-0.0032,-0.0178,-0.0178,-0.0178,0,0,0.0241,0.0225,0.0249,0.0239,0.0225,0.0207,0.021,0.0185,0.0174,0.0156,0.011,0.008,0.0014,-0.0008,-0.0032,-0.0014,-0.0037,-0.0041,0.0034,0.0052,0.0064,0.0075,0.0096,0.0108,-0.0032,-0.0032,-0.0032,0,0.0256,0.0284,0.0251,0.027,0.0274,0.0225,0.0254,0.0233,0.02,0.0212,0.0165,0.0112,0.0046,0.0055,0.0045,0.0005,0.0011,0.0011,0.0065,0.0075,0.0085,0.0104,0.0116,-0.0028,-0.0028,-0.0029,-0.0029,0,0.0315,0.0331,0.0343,0.0355,0.0348,0.0363,0.0336,0.0334,0.0308,0.0296,0.0293,0.0215,0.02,0.0156,0.0094,0.0129,0.0111,0.0071,0.0056,0.0105,0.0121,0.0132,-0.0021,-0.0022,-0.0024,-0.0025,0,0,0.0387,0.0388,0.0394,0.0427,0.04,0.0417,0.042,0.0437,0.0492,0.0424,0.0496,0.0385,0.0362,0.0333,0.0266,0.0255,0.0295,0.019,0.0188,0.0231,0.0348,0.0321,0.0329,0.0268,0.027,0.0272,0.0335,0,0.0456,0.052,0.0488,0.0554,0.0598,0.0549,0.0576,0.0577,0.0571,0.0625,0.0551,0.0581,0.0426,0.0443,0.04,0.0336,0.0327,0.0283,0.0277,0.0277,0.0264,0.0342,0.0288,0.0339,0.0345,0.0347,0.0348,0,0.0554,0.0584,0.0656,0.0704,0.0719,0.0745,0.0812,0.0827,0.0855,0.0859,0.0855,0.0813,0.079,0.0661,0.0579,0.056,0.0462,0.0392,0.0393,0.0348,0.0271,0.0287,0.0357,0.0125,0.0364,0.0363,0.0362,0,0.0688,0.0721,0.079,0.0799,0.0825,0.0866,0.0888,0.0919,0.0986,0.1041,0.1125,0.1054,0.109,0.094,0.076,0.0686,0.0688,0.0576,0.0464,0.0461,0.0405,0.0394,0.027,0.0536,0.0536,0.0536,0.0536,0,0.0822,0.0889,0.0867,0.092,0.1038,0.1002,0.114,0.1161,0.1235,0.1369,0.1278,0.1391,0.1164,0.1121,0.0889,0.0737,0.0795,0.0513,0.0489,0.0435,0.0426,0.0211,0.0084,0.0538,0.0538,0.0537,0.0537,0,0.1003,0.0975,0.1073,0.1097,0.1117,0.1216,0.1311,0.1408,0.1466,0.165,0.1692,0.1694,0.1636,0.1404,0.1213,0.0963,0.0656,0.0709,0.0662,0.063,0.0255,0.0136,0.0061,-0.0034,0.0589,0.0589,0.0589,0,0.112,0.1173,0.1216,0.1277,0.1303,0.1414,0.149,0.1537,0.1645,0.1843,0.1955,0.1988,0.2014,0.1735,0.1312,0.0963,0.0724,0.0682,0.0504,0.0264,0.0114,0.0049,-0.0031,0.0468,0.0467,0.0466,0.0466,0,0.1326,0.1312,0.1366,0.1472,0.1559,0.1667,0.1783,0.1901,0.1986,0.2159,0.2357,0.241,0.2167,0.1807,0.1343,0.1056,0.0511,0.0652,0.042,0.0038,-0.0052,-0.0165,0.0396,0.0458,0.0459,0.0459,0.046,0.046,0.1454,0.1522,0.1542,0.1656,0.1755,0.1877,0.1987,0.2121,0.2317,0.2561,0.2611,0.2719,0.22,0.1551,0.1183,0.0433,0.0463,0.0156,0.0046,0.0015,-0.0124,0.0429,0.0445,0.0446,0.0446,0.0447,0.0447,0,0.1555,0.1596,0.1716,0.1816,0.1929,0.1955,0.2135,0.2246,0.2475,0.2717,0.2883,0.2654,0.2006,0.1351,0.0358,-0.0111,-0.0287,-0.036,-0.0504,-0.055,-0.005,-0.0109,-0.0231,-0.0231,-0.0231,-0.023,-0.023,-0.023,0.1595,0.1681,0.1721,0.1907,0.1994,0.2132,0.2228,0.2432,0.2611,0.2863,0.2919,0.2946,0.2338,0.0676,-0.0427,-0.0663,-0.0975,-0.1026,-0.1139,-0.0878,-0.084,-0.0804,-0.0891,-0.1175,-0.1176,-0.1612,-0.1617,-0.1621]}],[{"header":{"parameterUnit":"m.s-1","parameterCategory":2,"la1":30.2991,"la2":30.254,"lo1":-89.0895,"lo2":-89.0444,"dy":0.0017,"dx":0.0017,"nx":28,"ny":28,"refTime":"2025-01-18T03:00:00:Z","depth":"2","parameterNumber":2,"parameterNumberName":"U-component_of_CURRENTS"},"data":[0,0,0,0,0,0,0,0,0,0,0,0,0,0,0,0,0,0,0,0,0,0,0,0,0,0,0,0,0,0,0,0,0,0,0,0,0,0,0,0,0,0,0,0,0,0,0,0,0,0,0,0,0,0,0,0,0,0,0.2143,0.2143,0,0.2172,0.2172,0.2173,0.2184,0.2184,0.2184,0.2184,0.2201,0.2202,0.2202,0,0,0,0,0,0,0,0,0,0,0,0,0,0.2114,0.2114,0.2143,0.2143,0.2144,0.2172,0.2172,0.2173,0.2184,0.2184,0.2184,0.2184,0.2201,0.2202,0.2202,0,0,0,0,0,0,0,0,0,0,0,0,0,0.2132,0.2114,0.2143,0.2153,0.2154,0.2172,0.2172,0.2173,0.2184,0.2184,0.2184,0.2184,0.2201,0.2202,0.2202,0.2208,0,0,0.2205,0.2205,0,0,0,0,0,0,0,0,0.2131,0.2133,0.2151,0.2152,0.2154,0.2175,0.2169,0.2184,0.2184,0.2172,0.2184,0.2184,0.2192,0.2193,0.2198,0.2209,0.2209,0.2205,0.2205,0.2205,0.2206,0,0,0,0,0,0,0,0.213,0.2132,0.2154,0.2152,0.2153,0.2162,0.2165,0.2172,0.2181,0.2173,0.2174,0.2178,0.2192,0.2197,0.2199,0.221,0.2205,0.2205,0.2206,0.2206,0.2283,0.2284,0,0,0,0,0,0,0.2127,0.2131,0.2153,0.2155,0.2143,0.2163,0.2165,0.2168,0.2181,0.2184,0.2178,0.2179,0.2196,0.2198,0.2199,0.2261,0.2205,0.2206,0.2207,0.2281,0.2283,0.2285,0,0,0,0,0,0,0.2126,0.2128,0.2152,0.2144,0.2148,0.2163,0.2166,0.2168,0.2185,0.2186,0.2188,0.2194,0.2196,0.2198,0.2224,0.2259,0.2206,0.2207,0.2279,0.2282,0.2284,0.2349,0,0,0,0,0,0,0.2125,0.2128,0.2136,0.2144,0.2148,0.2173,0.2166,0.2169,0.2187,0.2188,0.2199,0.22,0.2196,0.2223,0.2225,0.2259,0.2208,0.2277,0.228,0.2283,0.2344,0.2353,0.236,0,0,0,0,0,0.2124,0.2136,0.2136,0.214,0.2156,0.2174,0.2178,0.2188,0.2188,0.2201,0.2213,0.22,0.2244,0.2225,0.2227,0.2262,0.2276,0.2279,0.2283,0.2341,0.2351,0.236,0,0,0,0,0,0,0.2127,0.2138,0.2139,0.2153,0.2167,0.2177,0.2197,0.2196,0.2215,0.2221,0.2217,0.2219,0.2257,0.225,0.2229,0.2294,0.226,0.2264,0.2303,0.2313,0.232,0.2325,0.2208,0,0,0,0,0,0.2131,0.2141,0.2153,0.2165,0.2179,0.2189,0.2201,0.2205,0.2219,0.2227,0.2234,0.2249,0.2271,0.2283,0.2296,0.2328,0.2356,0.2353,0.2361,0.2368,0.2374,0.247,0.2488,0.2297,0.2297,0.2297,0,0,0.213,0.2142,0.2144,0.2166,0.2183,0.2202,0.2197,0.2221,0.2239,0.2226,0.2262,0.2275,0.2285,0.2326,0.2342,0.2325,0.2437,0.2373,0.2378,0.2381,0.2476,0.2495,0.2511,0.2299,0.2299,0.2298,0,0,0.2137,0.2154,0.2168,0.2185,0.2214,0.2223,0.2232,0.2252,0.2271,0.2299,0.2304,0.2339,0.2359,0.2384,0.2396,0.2455,0.2475,0.2462,0.2508,0.2601,0.2618,0.2634,0.2692,0.2712,0.2467,0.2467,0.2467,0,0.2136,0.2159,0.2175,0.2199,0.2222,0.2233,0.226,0.2278,0.23,0.2332,0.2318,0.239,0.2389,0.2459,0.2476,0.2473,0.2523,0.247,0.2614,0.2629,0.2644,0.27,0.2721,0.2471,0.247,0.247,0.247,0,0.2153,0.2179,0.2197,0.2228,0.2253,0.2282,0.2309,0.234,0.2361,0.2382,0.2456,0.247,0.2521,0.2525,0.2513,0.2619,0.262,0.2613,0.2591,0.2667,0.2721,0.2742,0.2476,0.2475,0.2474,0.2473,0,0,0.2139,0.2195,0.2203,0.2237,0.2278,0.2304,0.2348,0.2404,0.2462,0.2482,0.257,0.2593,0.262,0.2636,0.2646,0.2707,0.2837,0.2706,0.271,0.2767,0.3043,0.292,0.2931,0.2874,0.2878,0.2881,0.3038,0,0.2155,0.2202,0.2228,0.2286,0.2324,0.2361,0.2408,0.2458,0.2513,0.26,0.2636,0.272,0.266,0.2717,0.2766,0.2838,0.2897,0.2794,0.2958,0.2962,0.2847,0.2953,0.2733,0.2844,0.3058,0.3062,0.3064,0,0.2182,0.221,0.2264,0.2345,0.2368,0.2403,0.2513,0.2559,0.2667,0.272,0.2801,0.2845,0.2944,0.2889,0.3033,0.2982,0.3014,0.3044,0.3051,0.2928,0.2879,0.2804,0.2874,0.3099,0.3096,0.3094,0.3092,0,0.2195,0.2254,0.2302,0.2324,0.2398,0.2449,0.2503,0.2603,0.2674,0.2828,0.2914,0.3014,0.31,0.3168,0.3193,0.3158,0.3342,0.3307,0.3217,0.3208,0.3044,0.3013,0.341,0.341,0.3409,0.3409,0.3408,0,0.2226,0.2269,0.2315,0.2346,0.2426,0.2478,0.2596,0.2666,0.2791,0.289,0.2993,0.3074,0.3182,0.3274,0.328,0.331,0.3419,0.3248,0.3255,0.3056,0.3026,0.3255,0.3235,0.3415,0.3413,0.3412,0.3411,0,0.2269,0.2274,0.2338,0.241,0.2441,0.2508,0.2638,0.2692,0.2846,0.299,0.3053,0.318,0.3298,0.337,0.3488,0.3419,0.3464,0.3434,0.3167,0.3138,0.3248,0.323,0.3391,0.3389,0.3386,0.3385,0.3383,0,0.2284,0.2311,0.2403,0.2395,0.2433,0.2531,0.2565,0.2705,0.2748,0.3013,0.3036,0.3237,0.3266,0.3388,0.3374,0.3407,0.3444,0.3178,0.3047,0.3263,0.3255,0.3239,0.3224,0.2867,0.2862,0.2857,0.2853,0,0.2257,0.2298,0.2321,0.2376,0.2388,0.2471,0.2534,0.2568,0.2727,0.2857,0.2964,0.3041,0.3188,0.3097,0.3151,0.3115,0.3159,0.308,0.3444,0.2876,0.2773,0.2762,0.2765,0.2812,0.2816,0.2819,0.2821,0.2823,0.2172,0.2197,0.2203,0.2254,0.2287,0.2323,0.2335,0.2368,0.2431,0.2541,0.2732,0.2795,0.2877,0.282,0.276,0.2749,0.2936,0.2804,0.2818,0.2837,0.2719,0.2614,0.26,0.2603,0.2606,0.2608,0.261,0,0.198,0.2008,0.2054,0.2057,0.2061,0.219,0.2215,0.215,0.2113,0.2309,0.2398,0.2294,0.2285,0.2394,0.2323,0.2315,0.228,0.2215,0.2172,0.2216,0.2255,0.2104,0.1825,0.1822,0.1819,0.1817,0,0,0.181,0.1763,0.1833,0.1763,0.1834,0.1811,0.1808,0.1732,0.1794,0.1783,0.1878,0.2146,0.2312,0.2037,0.2022,0.1919,0.2036,0.1838,0.2478,0.2471,0.2505,0.2617,0.2438,0,0,0,0,0]},{"header":{"parameterUnit":"m.s-1","parameterCategory":2,"la1":30.2991,"la2":30.254,"lo1":-89.0895,"lo2":-89.0444,"dy":0.0017,"dx":0.0017,"nx":28,"ny":28,"refTime":"2025-01-18T03:00:00:Z","depth":"2","parameterNumber":3,"parameterNumberName":"V-component_of_CURRENTS"},"data":[0,0,0,0,0,0,0,0,0,0,0,0,0,0,0,0,0,0,0,0,0,0,0,0,0,0,0,0,0,0,0,0,0,0,0,0,0,0,0,0,0,0,0,0,0,0,0,0,0,0,0,0,0,0,0,0,0,0,0.0008,0.0007,0,-0.0044,-0.0045,-0.0046,-0.0083,-0.0083,-0.0084,-0.0084,-0.0185,-0.0187,-0.019,0,0,0,0,0,0,0,0,0,0,0,0,0,0.002,0.0021,0.0008,0.0007,0.0007,-0.0044,-0.0045,-0.0046,-0.0083,-0.0083,-0.0084,-0.0084,-0.0184,-0.0187,-0.019,0,0,0,0,0,0,0,0,0,0,0,0,0,-0.0005,0.0021,0.0008,-0.0017,-0.002,-0.0044,-0.0045,-0.0046,-0.0083,-0.0083,-0.0084,-0.0084,-0.0183,-0.0187,-0.019,-0.0208,0,0,-0.0202,-0.0204,0,0,0,0,0,0,0,0,-0.0003,-0.0005,-0.0013,-0.0015,-0.0018,-0.0057,-0.0078,-0.0102,-0.0083,-0.006,-0.0084,-0.0084,-0.0146,-0.0152,-0.0163,-0.0213,-0.0217,-0.0202,-0.0205,-0.0206,-0.0207,0,0,0,0,0,0,0,-0.0001,-0.0004,-0.0014,-0.0013,-0.0017,-0.0044,-0.0048,-0.0083,-0.0103,-0.0062,-0.0065,-0.0069,-0.0148,-0.0159,-0.0165,-0.0219,-0.0202,-0.0206,-0.0208,-0.0209,-0.0287,-0.0287,0,0,0,0,0,0,0.0011,-0.0001,-0.0012,-0.0016,-0.001,-0.0044,-0.0048,-0.0045,-0.0101,-0.0109,-0.0068,-0.007,-0.0152,-0.0161,-0.0169,-0.0182,-0.0206,-0.021,-0.0212,-0.0287,-0.0287,-0.0286,0,0,0,0,0,0,0.0012,0.0011,-0.001,-0.0009,-0.0014,-0.0043,-0.004,-0.0046,-0.0056,-0.0105,-0.0114,-0.0072,-0.0153,-0.0164,-0.0193,-0.0187,-0.0211,-0.0215,-0.0287,-0.0287,-0.0287,-0.0216,0,0,0,0,0,0,0.0012,0.0011,0.0015,-0.0008,-0.0013,-0.0018,-0.004,-0.0047,-0.0058,-0.0061,-0.0112,-0.0121,-0.0154,-0.0187,-0.0197,-0.0193,-0.0218,-0.0287,-0.0287,-0.0287,-0.0219,-0.0213,-0.0209,0,0,0,0,0,0.0013,0.0026,0.0016,0.0014,-0.0006,-0.0017,-0.0022,-0.0046,-0.0057,-0.0057,-0.009,-0.012,-0.0192,-0.019,-0.0201,-0.0198,-0.0288,-0.0287,-0.0287,-0.0221,-0.0214,-0.0209,0,0,0,0,0,0,0.0033,0.0022,0.0011,0.0019,0.0004,-0.0023,-0.0025,-0.0041,-0.0067,-0.0071,-0.0118,-0.013,-0.0153,-0.0186,-0.0183,-0.022,-0.0245,-0.0246,-0.0191,-0.0185,-0.018,-0.0154,-0.0221,0,0,0,0,0,0.004,0.0046,0.0027,0.0033,0.0029,0.0002,-0.0007,-0.0021,-0.0045,-0.0057,-0.0091,-0.0129,-0.0161,-0.0179,-0.0213,-0.0234,-0.0259,-0.024,-0.0235,-0.023,-0.0217,-0.0243,-0.0239,-0.0285,-0.0285,-0.0285,0,0,0.0049,0.0044,0.0046,0.0037,0.0023,0.0027,-0.0004,-0.0009,-0.0007,-0.0065,-0.0074,-0.0114,-0.0162,-0.0183,-0.0197,-0.0209,-0.0233,-0.023,-0.0225,-0.0214,-0.0242,-0.0237,-0.0233,-0.0285,-0.0285,-0.0285,0,0,0.0076,0.0067,0.0082,0.0074,0.0061,0.0046,0.0048,0.0025,0.0014,-0.0003,-0.0041,-0.0071,-0.0123,-0.0151,-0.0173,-0.0163,-0.0206,-0.0179,-0.0134,-0.0159,-0.0155,-0.0152,-0.0186,-0.0186,-0.0177,-0.0176,-0.0176,0,0.0087,0.0103,0.0083,0.0095,0.0094,0.006,0.0076,0.0061,0.0031,0.0027,0.0004,-0.0058,-0.0104,-0.0123,-0.0121,-0.015,-0.0174,-0.015,-0.0151,-0.0148,-0.0146,-0.0182,-0.0183,-0.0173,-0.0173,-0.0174,-0.0174,0,0.0122,0.0134,0.0143,0.0149,0.0145,0.0152,0.0133,0.0128,0.0107,0.009,0.0067,0.0009,-0.0023,-0.0049,-0.0085,-0.0092,-0.0118,-0.014,-0.0161,-0.0137,-0.0177,-0.0179,-0.0168,-0.0169,-0.017,-0.0171,0,0,0.0145,0.0167,0.0169,0.0185,0.0175,0.0181,0.0186,0.0183,0.0201,0.0156,0.0171,0.0101,0.0073,0.0046,-0.0003,-0.0031,-0.005,-0.0074,-0.0077,-0.0098,-0.011,-0.0168,-0.0177,-0.007,-0.007,-0.007,-0.0146,0,0.0176,0.0222,0.0218,0.0254,0.0273,0.0252,0.0266,0.0258,0.0245,0.0252,0.0191,0.0188,0.0109,0.0106,0.006,-0.0007,-0.0052,-0.0027,-0.0138,-0.0141,-0.0187,-0.018,-0.014,-0.0208,-0.0149,-0.0149,-0.0149,0,0.0203,0.0234,0.0283,0.0318,0.0325,0.0346,0.0368,0.038,0.0374,0.0367,0.0343,0.0302,0.0262,0.0195,0.0078,0.01,-0.0001,-0.0068,-0.0073,-0.015,-0.0203,-0.0223,-0.0215,-0.0154,-0.0154,-0.0153,-0.0153,0,0.0226,0.0272,0.0319,0.0328,0.0364,0.0389,0.0412,0.0418,0.0445,0.046,0.0489,0.0414,0.0405,0.0278,0.0121,0.011,-0.0014,-0.0047,-0.0203,-0.0209,-0.0208,-0.0214,-0.0142,-0.0142,-0.0142,-0.0142,-0.0142,0,0.025,0.0278,0.0343,0.037,0.0439,0.0444,0.0513,0.0527,0.0558,0.061,0.0564,0.0572,0.0429,0.0331,0.0166,-0.0025,0.0013,-0.0191,-0.0229,-0.0186,-0.0188,-0.0166,-0.0168,-0.0145,-0.0144,-0.0144,-0.0143,0,0.0254,0.0283,0.0345,0.0419,0.0454,0.0504,0.0592,0.063,0.0675,0.0747,0.0766,0.0706,0.0587,0.0412,0.0211,0.0048,-0.0133,-0.0223,-0.017,-0.0201,-0.0323,-0.032,-0.0383,-0.0385,-0.0387,-0.0389,-0.0391,0,0.0243,0.0278,0.0406,0.0444,0.0482,0.0568,0.0622,0.0683,0.0721,0.0811,0.0829,0.0772,0.0695,0.0385,0.0119,-0.0156,-0.0193,-0.0318,-0.0342,-0.0315,-0.0346,-0.034,-0.0334,-0.0315,-0.0316,-0.0317,-0.0317,0,0.0209,0.0269,0.033,0.0463,0.0529,0.0622,0.0704,0.0768,0.0845,0.0932,0.0975,0.0941,0.067,0.0401,0.0036,-0.0162,-0.0263,-0.0343,-0.0311,-0.0268,-0.026,-0.0288,-0.0283,-0.0323,-0.0322,-0.0322,-0.0322,-0.0321,0.0169,0.0221,0.0327,0.0444,0.0527,0.0643,0.0747,0.0829,0.0941,0.1085,0.1043,0.1053,0.0737,0.0286,-0.0039,-0.0335,-0.0342,-0.0443,-0.0437,-0.0431,-0.0417,-0.0414,-0.0504,-0.0504,-0.0505,-0.0505,-0.0505,0,0.0135,0.0207,0.0295,0.043,0.0533,0.0614,0.0768,0.0888,0.1049,0.116,0.1227,0.0989,0.0671,0.0342,-0.0099,-0.0413,-0.0411,-0.0504,-0.0417,-0.041,-0.0405,-0.0386,-0.0466,-0.0467,-0.0467,-0.0468,0,0,0.01,0.0182,0.0257,0.0394,0.0512,0.0687,0.0808,0.1004,0.114,0.1265,0.1305,0.1239,0.0814,0.0504,0.0078,-0.0167,-0.0211,-0.0225,-0.0228,-0.0069,-0.0058,-0.035,-0.0313,0,0,0,0,0]}],[{"header":{"parameterUnit":"m.s-1","parameterCategory":2,"la1":30.2991,"la2":30.254,"lo1":-89.0895,"lo2":-89.0444,"dy":0.0017,"dx":0.0017,"nx":28,"ny":28,"refTime":"2025-01-18T03:00:00:Z","depth":"4","parameterNumber":2,"parameterNumberName":"U-component_of_CURRENTS"},"data":[0,0,0,0,0,0,0,0,0,0,0,0,0,0,0,0,0,0,0,0,0,0,0,0,0,0,0,0,0,0,0,0,0,0,0,0,0,0,0,0,0,0,0,0,0,0,0,0,0,0,0,0,0,0,0,0,0,0,0.1261,0.1262,0,0.1348,0.1349,0.1349,0.1409,0.141,0.1411,0.1411,0.1486,0.1487,0.1488,0,0,0,0,0,0,0,0,0,0,0,0,0,0.115,0.1151,0.1261,0.1262,0.1264,0.1348,0.1349,0.135,0.1409,0.141,0.1411,0.1412,0.1485,0.1487,0.1488,0,0,0,0,0,0,0,0,0,0,0,0,0,0.1211,0.1152,0.1261,0.1305,0.131,0.1348,0.1349,0.135,0.1409,0.141,0.1411,0.1412,0.1485,0.1487,0.1489,0.148,0,0,0.1495,0.1496,0,0,0,0,0,0,0,0,0.1208,0.1215,0.1298,0.1302,0.1308,0.1371,0.1337,0.1394,0.1409,0.1369,0.1411,0.1413,0.1447,0.1452,0.1463,0.1484,0.1487,0.1495,0.1496,0.1497,0.1498,0,0,0,0,0,0,0,0.1203,0.1211,0.1293,0.1299,0.1305,0.1323,0.1332,0.1348,0.1399,0.1372,0.1378,0.1391,0.145,0.1461,0.1465,0.1488,0.1495,0.1497,0.1498,0.1499,0.1597,0.1598,0,0,0,0,0,0,0.1197,0.1207,0.129,0.1296,0.1262,0.1324,0.1334,0.1348,0.1399,0.1409,0.139,0.1394,0.1457,0.1463,0.1468,0.1547,0.1497,0.1499,0.15,0.1595,0.1597,0.1598,0,0,0,0,0,0,0.1194,0.1203,0.1287,0.1255,0.1268,0.1325,0.1339,0.1349,0.139,0.1413,0.1422,0.1425,0.1458,0.1465,0.1512,0.1547,0.15,0.1502,0.1594,0.1596,0.1598,0.1651,0,0,0,0,0,0,0.119,0.1201,0.1222,0.1255,0.1269,0.1327,0.1339,0.135,0.1396,0.1402,0.1445,0.1452,0.1459,0.1509,0.1514,0.1549,0.1503,0.1592,0.1595,0.1597,0.1647,0.1654,0.166,0,0,0,0,0,0.1186,0.1206,0.1223,0.1234,0.1292,0.1328,0.1337,0.1379,0.1397,0.1419,0.1453,0.1452,0.153,0.1512,0.1518,0.1554,0.1591,0.1594,0.1597,0.1644,0.1653,0.166,0,0,0,0,0,0,0.1169,0.1215,0.1234,0.1268,0.1305,0.134,0.137,0.1393,0.1436,0.1453,0.1468,0.1477,0.1534,0.1533,0.1514,0.159,0.156,0.1565,0.1595,0.1603,0.1609,0.1611,0.1505,0,0,0,0,0,0.1173,0.1204,0.1244,0.1275,0.1296,0.1337,0.1363,0.1392,0.1428,0.145,0.148,0.1513,0.1545,0.1567,0.1592,0.1629,0.1638,0.1656,0.1663,0.1669,0.1674,0.1726,0.1738,0.1609,0.1609,0.1609,0,0,0.1173,0.1206,0.1222,0.1274,0.1308,0.1342,0.1356,0.1405,0.144,0.1449,0.1514,0.154,0.1561,0.1611,0.1635,0.1618,0.1709,0.1673,0.1677,0.168,0.173,0.1743,0.1754,0.1611,0.161,0.161,0,0,0.1183,0.122,0.1248,0.1282,0.1342,0.1366,0.1385,0.1437,0.1473,0.1528,0.1549,0.1597,0.1642,0.1668,0.1684,0.1739,0.1744,0.1752,0.1787,0.1838,0.1849,0.1859,0.188,0.1891,0.1753,0.1753,0.1753,0,0.1189,0.1226,0.1262,0.13,0.1334,0.1378,0.1415,0.1451,0.1515,0.1549,0.1558,0.1653,0.1669,0.1731,0.1753,0.1756,0.1778,0.1755,0.1847,0.1857,0.1866,0.1886,0.1898,0.1756,0.1756,0.1755,0.1755,0,0.121,0.1254,0.1276,0.1337,0.1374,0.1416,0.1467,0.1516,0.1562,0.16,0.1685,0.1718,0.1774,0.1789,0.1788,0.1866,0.1858,0.1851,0.1826,0.1882,0.1899,0.1911,0.176,0.1759,0.1758,0.1757,0,0,0.1185,0.1276,0.1285,0.1325,0.1402,0.1432,0.1497,0.1565,0.162,0.1684,0.1756,0.1815,0.1847,0.1867,0.1884,0.1924,0.2002,0.192,0.1921,0.194,0.2107,0.1965,0.1964,0.2022,0.2024,0.2026,0.209,0,0.1198,0.1266,0.1311,0.138,0.1418,0.1483,0.1538,0.1607,0.1672,0.175,0.1805,0.1882,0.1873,0.1919,0.1958,0.2001,0.2036,0.1984,0.205,0.2051,0.1918,0.1973,0.2034,0.2098,0.2101,0.2103,0.2104,0,0.1193,0.1247,0.1314,0.1412,0.1437,0.1487,0.1591,0.1653,0.1761,0.1815,0.1898,0.1947,0.203,0.2011,0.2108,0.2082,0.2099,0.2117,0.212,0.1977,0.1931,0.2032,0.2124,0.2123,0.2121,0.212,0.2119,0,0.1135,0.1243,0.1301,0.1334,0.1448,0.1502,0.1572,0.1678,0.1737,0.1874,0.1936,0.2032,0.2102,0.2149,0.2183,0.2167,0.2271,0.225,0.2133,0.2123,0.2208,0.2197,0.2312,0.2312,0.2312,0.2312,0.2312,0,0.1106,0.1151,0.1289,0.1315,0.1394,0.1494,0.1584,0.1665,0.1787,0.1852,0.1977,0.2034,0.2147,0.221,0.222,0.2207,0.2304,0.2147,0.2136,0.2226,0.2217,0.2215,0.2203,0.2314,0.2314,0.2313,0.2313,0,0.1,0.1101,0.1164,0.1306,0.1363,0.1415,0.1568,0.1619,0.1772,0.1864,0.1916,0.2066,0.2158,0.2232,0.2313,0.2245,0.2252,0.2219,0.2308,0.23,0.2059,0.205,0.2098,0.2094,0.209,0.2087,0.2084,0,0.0931,0.0964,0.1121,0.1162,0.1228,0.1339,0.1404,0.158,0.1636,0.1849,0.1871,0.2031,0.2108,0.2123,0.2202,0.2224,0.2194,0.2176,0.2113,0.2055,0.2042,0.2037,0.2032,0.2079,0.2078,0.2077,0.2076,0,0.0792,0.0869,0.0924,0.1018,0.1103,0.1188,0.1307,0.1348,0.1547,0.1697,0.1798,0.187,0.1969,0.2034,0.2075,0.2076,0.2177,0.2137,0.2144,0.2085,0.2033,0.2021,0.2021,0.2063,0.2065,0.2066,0.2067,0,0.0678,0.0685,0.0784,0.0858,0.0947,0.1017,0.1111,0.1218,0.1326,0.1582,0.1598,0.1785,0.1936,0.1957,0.1981,0.1991,0.1958,0.1882,0.1901,0.1916,0.1826,0.1731,0.1668,0,0,0,0,0,0.0567,0.0584,0.0619,0.0714,0.0786,0.0867,0.1028,0.1134,0.1347,0.1371,0.1494,0.1582,0.1676,0.1765,0.174,0.1877,0.1943,0.1835,0.1859,0.1992,0.2007,0.1917,0,0,0,0,0,0,0.0505,0.0533,0.0573,0.0577,0.0611,0.0709,0.0817,0.0968,0.1015,0.1229,0.1298,0.1453,0.1571,0.1663,0.1694,0.1718,0.1695,0.1948,0.1943,0.1984,0.1997,0.2009,0.1922,0,0,0,0,0]},{"header":{"parameterUnit":"m.s-1","parameterCategory":2,"la1":30.2991,"la2":30.254,"lo1":-89.0895,"lo2":-89.0444,"dy":0.0017,"dx":0.0017,"nx":28,"ny":28,"refTime":"2025-01-18T03:00:00:Z","depth":"4","parameterNumber":3,"parameterNumberName":"V-component_of_CURRENTS"},"data":[0,0,0,0,0,0,0,0,0,0,0,0,0,0,0,0,0,0,0,0,0,0,0,0,0,0,0,0,0,0,0,0,0,0,0,0,0,0,0,0,0,0,0,0,0,0,0,0,0,0,0,0,0,0,0,0,0,0,0.0035,0.0034,0,-0.0005,-0.0006,-0.0006,-0.0037,-0.0037,-0.0037,-0.0038,-0.0113,-0.0115,-0.0117,0,0,0,0,0,0,0,0,0,0,0,0,0,0.005,0.005,0.0035,0.0034,0.0034,-0.0005,-0.0006,-0.0006,-0.0037,-0.0037,-0.0037,-0.0038,-0.0113,-0.0115,-0.0117,0,0,0,0,0,0,0,0,0,0,0,0,0,0.003,0.005,0.0035,0.0014,0.0012,-0.0005,-0.0006,-0.0007,-0.0037,-0.0037,-0.0038,-0.0038,-0.0112,-0.0114,-0.0117,-0.0127,0,0,-0.0125,-0.0126,0,0,0,0,0,0,0,0,0.0031,0.0029,0.0018,0.0016,0.0013,-0.0016,-0.0028,-0.0048,-0.0037,-0.0019,-0.0038,-0.0038,-0.0083,-0.0088,-0.0095,-0.013,-0.0133,-0.0126,-0.0127,-0.0128,-0.0129,0,0,0,0,0,0,0,0.0032,0.003,0.0018,0.0017,0.0015,-0.0005,-0.0008,-0.0032,-0.005,-0.002,-0.0023,-0.0026,-0.0085,-0.0093,-0.0098,-0.0135,-0.0125,-0.0128,-0.013,-0.0131,-0.0184,-0.0184,0,0,0,0,0,0,0.0041,0.0032,0.002,0.0017,0.0022,-0.0004,-0.0008,-0.0007,-0.0049,-0.0055,-0.0026,-0.0027,-0.0088,-0.0094,-0.01,-0.0113,-0.0128,-0.0131,-0.0132,-0.0184,-0.0184,-0.0184,0,0,0,0,0,0,0.0041,0.004,0.0021,0.0024,0.002,-0.0004,-0.0003,-0.0007,-0.0016,-0.0052,-0.0059,-0.003,-0.0088,-0.0097,-0.0118,-0.0116,-0.0132,-0.0135,-0.0185,-0.0184,-0.0184,-0.0139,0,0,0,0,0,0,0.0042,0.0041,0.0043,0.0025,0.002,0.0015,-0.0002,-0.0008,-0.0017,-0.002,-0.0058,-0.0065,-0.0089,-0.0114,-0.012,-0.012,-0.0137,-0.0185,-0.0184,-0.0184,-0.0141,-0.0137,-0.0134,0,0,0,0,0,0.0043,0.0051,0.0044,0.0042,0.0025,0.0016,0.0012,-0.0007,-0.0017,-0.0017,-0.0042,-0.0064,-0.0116,-0.0115,-0.0124,-0.0124,-0.0185,-0.0184,-0.0184,-0.0142,-0.0138,-0.0134,0,0,0,0,0,0,0.0059,0.0048,0.004,0.0044,0.0032,0.0011,0.0009,-0.0004,-0.0024,-0.0027,-0.0062,-0.0071,-0.0089,-0.0112,-0.011,-0.0138,-0.0154,-0.0156,-0.012,-0.0116,-0.0113,-0.0105,-0.0139,0,0,0,0,0,0.0064,0.0068,0.0052,0.0055,0.0051,0.003,0.0023,0.0012,-0.0007,-0.0016,-0.0042,-0.0069,-0.0094,-0.0108,-0.0132,-0.0147,-0.0183,-0.0153,-0.015,-0.0147,-0.0146,-0.0193,-0.0194,-0.0182,-0.0182,-0.0182,0,0,0.0071,0.0066,0.0067,0.0059,0.0047,0.0048,0.0025,0.002,0.0019,-0.0022,-0.0031,-0.006,-0.0095,-0.0111,-0.0122,-0.013,-0.017,-0.0146,-0.0143,-0.0144,-0.0193,-0.0194,-0.0195,-0.0182,-0.0182,-0.0182,0,0,0.0088,0.0082,0.009,0.0084,0.0073,0.0062,0.0063,0.0044,0.0034,0.0022,-0.0008,-0.0034,-0.0067,-0.0093,-0.011,-0.0104,-0.0151,-0.0112,-0.0091,-0.0136,-0.0137,-0.0139,-0.019,-0.0197,-0.011,-0.011,-0.011,0,0.0095,0.0102,0.009,0.0096,0.0094,0.0072,0.0079,0.0069,0.0045,0.0036,0.0026,-0.003,-0.0058,-0.0086,-0.0082,-0.0098,-0.0133,-0.0101,-0.0132,-0.0134,-0.0137,-0.0189,-0.0197,-0.0108,-0.0108,-0.0109,-0.0109,0,0.0113,0.012,0.0125,0.0127,0.0125,0.0126,0.0114,0.0109,0.0094,0.0077,0.0048,0.0008,-0.0027,-0.0039,-0.0058,-0.0088,-0.0111,-0.0122,-0.0141,-0.0135,-0.0191,-0.02,-0.0105,-0.0106,-0.0106,-0.0107,0,0,0.0114,0.0136,0.0135,0.0142,0.014,0.014,0.0145,0.0135,0.013,0.0104,0.0087,0.0049,0.0021,-0.0001,-0.0034,-0.0071,-0.0119,-0.0098,-0.0102,-0.0148,-0.0228,-0.0209,-0.0217,-0.0136,-0.0137,-0.0138,-0.0261,0,0.0125,0.0152,0.0158,0.0175,0.0182,0.0174,0.018,0.017,0.0152,0.0131,0.0087,0.0059,0.0037,0.0017,-0.0022,-0.0095,-0.014,-0.0085,-0.0228,-0.0232,-0.0215,-0.0226,-0.0142,-0.0268,-0.027,-0.0272,-0.0273,0,0.0123,0.0146,0.0172,0.0195,0.0197,0.0209,0.0206,0.021,0.0183,0.0167,0.0133,0.0094,0.004,0.002,-0.0101,-0.0066,-0.0141,-0.0199,-0.0206,-0.0209,-0.0229,-0.0275,-0.029,-0.0289,-0.0287,-0.0286,-0.0285,0,0.0104,0.0143,0.0167,0.0174,0.0202,0.0213,0.0227,0.0217,0.0219,0.0187,0.0176,0.0106,0.0065,-0.0027,-0.0136,-0.0125,-0.0279,-0.0282,-0.0341,-0.0342,-0.0342,-0.0339,-0.0376,-0.0375,-0.0375,-0.0375,-0.0374,0,0.0091,0.0102,0.0165,0.0173,0.0205,0.0221,0.0241,0.0241,0.0237,0.0245,0.0195,0.0175,0.0052,-0.0044,-0.0142,-0.0268,-0.0288,-0.0343,-0.037,-0.0321,-0.0314,-0.035,-0.0345,-0.0379,-0.0378,-0.0377,-0.0377,0,0.0043,0.0082,0.0112,0.0171,0.0193,0.0212,0.0265,0.0283,0.0276,0.0282,0.0275,0.0205,0.0098,-0.0037,-0.0204,-0.0273,-0.0397,-0.0442,-0.0389,-0.0412,-0.0431,-0.0423,-0.0516,-0.0516,-0.0516,-0.0517,-0.0517,0,0.0024,0.0038,0.0112,0.0154,0.0183,0.023,0.0271,0.0293,0.0324,0.031,0.0318,0.0215,0.0159,-0.0056,-0.0204,-0.0404,-0.0424,-0.05,-0.0451,-0.0427,-0.0445,-0.0436,-0.0428,-0.0517,-0.0517,-0.0517,-0.0517,0,0.0007,0.003,0.0073,0.0157,0.0216,0.0276,0.0342,0.0363,0.0398,0.0375,0.0366,0.0262,0.0133,-0.003,-0.0198,-0.0337,-0.0451,-0.0503,-0.0503,-0.0457,-0.043,-0.0446,-0.0437,-0.0518,-0.0518,-0.0518,-0.0518,0,0.0017,0.0042,0.0122,0.0188,0.026,0.0339,0.0356,0.0418,0.0442,0.0438,0.0425,0.0297,0.0206,0.0002,-0.0148,-0.0286,-0.031,-0.0343,-0.0351,-0.0352,-0.0259,-0.0198,-0.0242,0,0,0,0,0,0.0055,0.0107,0.0164,0.026,0.0317,0.0367,0.0429,0.0446,0.0466,0.0477,0.0461,0.0356,0.0153,0.0054,-0.0076,-0.0166,-0.0352,-0.0326,-0.0397,-0.0523,-0.0522,-0.0437,0,0,0,0,0,0,0.0109,0.0165,0.0183,0.0309,0.0374,0.0458,0.05,0.0504,0.0517,0.0504,0.0401,0.0334,0.0131,0.0238,-0.0072,-0.012,-0.018,-0.0432,-0.0434,-0.0524,-0.0523,-0.0522,-0.0435,0,0,0,0,0]}]]